[[[{"header":{"parameterUnit":"kt","parameterCategory":2,"dx":1,"dy":1,"la1":30.253999710083008,"la2":30.299108505249023,"lo1":-89.0895004272461,"lo2":-89.04439544677734,"nx":28,"ny":28,"refTime":"2022-09-20T09:00:00:Z","depth":"0","parameterNumber":2,"parameterNumberName":"U-component_of_CURRENTS"},"data":[0.4866,0.478,0.4772,0.4631,0.4571,0.4419,0.4348,0.4209,0.4187,0.4038,0.3975,0.3969,0.3662,0.3014,0.2597,0.2632,0.2487,0.2273,0.2471,0.299,0.3096,0.3197,0.2945,0.2185,0.2184,0.1457,0.1449,0.1444,0.4974,0.4953,0.4852,0.4753,0.4678,0.4676,0.4592,0.4479,0.4418,0.4481,0.4494,0.4394,0.4224,0.4223,0.3995,0.3801,0.3811,0.3638,0.3317,0.3384,0.425,0.4016,0.3472,0.3472,0.3472,0.3473,0.3473,0.3473,0.515,0.5077,0.5021,0.4912,0.484,0.4778,0.4666,0.4654,0.4632,0.4626,0.4785,0.4824,0.4796,0.5099,0.52,0.4955,0.5186,0.4812,0.4772,0.4666,0.4409,0.5203,0.5157,0.5162,0.5166,0.517,0.5173,0,0.5297,0.53,0.518,0.5074,0.4974,0.4869,0.4798,0.4781,0.4815,0.4838,0.4923,0.5008,0.529,0.5364,0.5625,0.5805,0.5635,0.5926,0.5661,0.4967,0.4573,0.458,0.5662,0.5645,0.5652,0.5658,0.5662,0.5665,0.5566,0.5448,0.5288,0.5204,0.5119,0.4983,0.4922,0.4905,0.4892,0.4984,0.5013,0.5217,0.5311,0.5752,0.599,0.6297,0.6145,0.6097,0.6054,0.5604,0.5572,0.5398,0.5347,0.5748,0.5737,0.5729,0.5722,0,0.5733,0.5651,0.5417,0.5251,0.5209,0.5084,0.4996,0.4941,0.4977,0.5002,0.504,0.519,0.546,0.5709,0.6196,0.6287,0.6338,0.6619,0.6123,0.6141,0.5751,0.5656,0.5398,0.5322,0.6618,0.6614,0.661,0,0.5918,0.573,0.5621,0.5486,0.5295,0.5219,0.5077,0.5041,0.5058,0.5041,0.514,0.5195,0.555,0.5773,0.6046,0.6292,0.6473,0.6469,0.6555,0.6239,0.6189,0.5993,0.5889,0.6836,0.6834,0.6833,0.6832,0,0.617,0.5898,0.5691,0.5605,0.542,0.5319,0.5245,0.5184,0.5138,0.5178,0.5239,0.532,0.5444,0.5751,0.6021,0.6061,0.6459,0.6576,0.6523,0.6508,0.6309,0.6265,0.5983,0.6829,0.6829,0.6828,0.6828,0,0.632,0.6187,0.5901,0.5723,0.5657,0.5512,0.5379,0.5264,0.5246,0.5276,0.5292,0.5383,0.5437,0.5578,0.5891,0.5841,0.6066,0.6258,0.6276,0.6117,0.6199,0.6105,0.5977,0.5659,0.6456,0.6453,0.645,0,0.662,0.6333,0.6271,0.5986,0.5831,0.5823,0.5674,0.5579,0.5574,0.5535,0.5559,0.5518,0.5536,0.5578,0.5692,0.5928,0.6025,0.5879,0.6377,0.6387,0.6247,0.6171,0.581,0.5947,0.6409,0.6413,0.6416,0,0.684,0.6642,0.6599,0.6497,0.6343,0.6232,0.6061,0.5912,0.5853,0.5793,0.573,0.5576,0.5685,0.5627,0.5647,0.5781,0.5951,0.5957,0.5971,0.61,0.6378,0.6143,0.6148,0.6163,0.6168,0.6172,0.6384,0,0.7025,0.6884,0.6789,0.6612,0.6519,0.6376,0.6302,0.6223,0.6222,0.6178,0.6063,0.6036,0.5953,0.5908,0.5899,0.5883,0.5963,0.6071,0.6188,0.611,0.6196,0.6221,0.5961,0.5963,0.5965,0.5967,0,0,0.73,0.71,0.7088,0.6935,0.6846,0.6876,0.6705,0.6626,0.6493,0.6444,0.651,0.6323,0.6272,0.6091,0.6026,0.5989,0.6134,0.6009,0.6085,0.6097,0.6109,0.6192,0.6214,0.597,0.5971,0.5972,0.5972,0,0.7342,0.7291,0.715,0.7069,0.6974,0.6923,0.6892,0.6784,0.6738,0.6581,0.6596,0.6534,0.6361,0.6295,0.6239,0.6032,0.6206,0.6004,0.5891,0.6096,0.6105,0.6114,0.6196,0.6214,0.5977,0.5977,0.5977,0,0.75,0.7429,0.7362,0.7214,0.7149,0.7005,0.7084,0.6973,0.6852,0.6909,0.6722,0.6713,0.6631,0.6468,0.64,0.6434,0.6305,0.6243,0.623,0.6226,0.6446,0.6452,0.6457,0.6418,0.642,0.6421,0,0,0.7549,0.7439,0.7348,0.722,0.7177,0.7114,0.7054,0.7036,0.695,0.6914,0.6859,0.6785,0.6689,0.6627,0.6542,0.6376,0.6494,0.6299,0.6278,0.6261,0.6248,0.6459,0.6462,0.6427,0.6427,0.6428,0,0,0.7571,0.7453,0.7462,0.7301,0.7221,0.7116,0.704,0.7037,0.694,0.6953,0.6934,0.6918,0.6779,0.6744,0.6828,0.6565,0.6648,0.6629,0.6593,0.6566,0.6546,0.656,0.6898,0,0,0,0,0,0.7592,0.7467,0.7476,0.7444,0.7255,0.7113,0.7088,0.7058,0.7099,0.7031,0.6985,0.7023,0.6776,0.685,0.6824,0.6735,0.6507,0.6493,0.648,0.6395,0.6367,0.6344,0,0,0,0,0,0,0.7579,0.7537,0.748,0.7372,0.733,0.7117,0.7182,0.7168,0.7105,0.7109,0.7026,0.702,0.7005,0.6864,0.684,0.6755,0.6906,0.6501,0.6489,0.6479,0.6385,0.6363,0.6343,0,0,0,0,0,0.7568,0.7535,0.7242,0.7373,0.7337,0.7269,0.7186,0.7175,0.7118,0.7068,0.706,0.7104,0.7003,0.6983,0.685,0.6765,0.6922,0.6913,0.6494,0.6484,0.6476,0.6374,0,0,0,0,0,0,0.7561,0.7512,0.7234,0.7222,0.7424,0.728,0.7255,0.7182,0.708,0.7071,0.7147,0.7152,0.7,0.6985,0.697,0.6768,0.6935,0.6926,0.6921,0.6486,0.6479,0.6472,0,0,0,0,0,0,0.7531,0.7501,0.7228,0.7294,0.7289,0.729,0.7268,0.7162,0.7081,0.7164,0.7165,0.7151,0.7047,0.6986,0.6974,0.6807,0.6945,0.6937,0.6931,0.6927,0.648,0.6475,0,0,0,0,0,0,0.7518,0.7493,0.7296,0.7292,0.7288,0.7146,0.7197,0.7016,0.7106,0.7169,0.7118,0.7123,0.7049,0.7035,0.6977,0.6814,0.6809,0.6945,0.6939,0.6935,0.6932,0,0,0,0,0,0,0,0.7507,0.7682,0.7313,0.7291,0.7287,0.7114,0.711,0.7106,0.7107,0.7112,0.7117,0.7121,0.6994,0.6985,0.6975,0.682,0,0,0.6946,0.6942,0,0,0,0,0,0,0,0,0.7692,0.7684,0.7313,0.7311,0.7309,0.7114,0.711,0.7107,0.7108,0.7112,0.7116,0.7119,0.6991,0.6984,0.6976,0,0,0,0,0,0,0,0,0,0,0,0,0,0,0,0.7313,0.7311,0,0.7113,0.7111,0.7108,0.7108,0.7112,0.7115,0.7118,0.6989,0.6983,0.6977,0,0,0,0,0,0,0,0,0,0,0,0,0,0,0,0,0,0,0,0,0,0,0,0,0,0,0,0,0,0,0,0,0,0,0,0,0,0,0,0,0,0,0,0,0,0,0,0,0,0,0,0,0,0,0,0,0,0,0,0,0,0,0,0,0,0,0,0,0]}],[{"header":{"parameterUnit":"kt","parameterCategory":2,"dx":1,"dy":1,"la1":30.253999710083008,"la2":30.299108505249023,"lo1":-89.0895004272461,"lo2":-89.04439544677734,"nx":28,"ny":28,"refTime":"2022-09-20T09:00:00:Z","depth":"0","parameterNumber":3,"parameterNumberName":"V-component_of_CURRENTS"},"data":[-0.0921,-0.0712,-0.0614,-0.0129,0.0095,0.0504,0.0769,0.1101,0.141,0.1913,0.2183,0.2377,0.237,0.194,0.1619,0.1573,0.1533,0.1525,0.1523,0.147,0.1487,0.1502,0.1319,0.1344,0.1343,0.1504,0.1505,0.1505,-0.1064,-0.0935,-0.0736,-0.0439,-0.0158,-0.0087,0.0354,0.0628,0.115,0.1569,0.1996,0.2321,0.2366,0.2307,0.206,0.1861,0.1881,0.1746,0.175,0.1813,0.1887,0.1717,0.1826,0.1827,0.1827,0.1827,0.1827,0.1827,-0.1257,-0.1137,-0.0989,-0.0772,-0.0553,-0.0219,0.0037,0.0371,0.0813,0.1397,0.1646,0.2121,0.2258,0.2375,0.2342,0.2106,0.2186,0.1964,0.194,0.1977,0.1878,0.1719,0.2142,0.2141,0.2141,0.2141,0.2141,0,-0.137,-0.1337,-0.1212,-0.0992,-0.0799,-0.0549,-0.0259,-0.0029,0.0342,0.0712,0.1292,0.1626,0.2046,0.226,0.2306,0.2334,0.2117,0.2192,0.203,0.1789,0.1609,0.164,0.1611,0.2146,0.2146,0.2146,0.2145,0.2145,-0.1517,-0.1444,-0.1263,-0.1137,-0.1044,-0.0833,-0.0644,-0.0421,-0.0145,0.043,0.0703,0.1184,0.1559,0.2066,0.2085,0.2237,0.2104,0.2195,0.1953,0.1602,0.1542,0.1508,0.1511,0.2143,0.2143,0.2143,0.2144,0,-0.1587,-0.152,-0.1353,-0.1179,-0.1118,-0.0978,-0.0685,-0.0464,-0.024,0.0199,0.0326,0.0711,0.1155,0.1313,0.1792,0.1708,0.1957,0.1983,0.1802,0.1817,0.1526,0.1434,0.1935,0.1984,0.2097,0.2097,0.2097,0,-0.1639,-0.1528,-0.1406,-0.1327,-0.1143,-0.1046,-0.0798,-0.0669,-0.0373,-0.0062,0.0033,0.037,0.0632,0.0975,0.1049,0.1364,0.1585,0.1374,0.1421,0.1375,0.1345,0.1291,0.1197,0.1693,0.169,0.1686,0.1684,0,-0.1701,-0.1547,-0.1431,-0.1375,-0.1185,-0.1097,-0.0989,-0.078,-0.0611,-0.0323,-0.0112,0.015,0.0395,0.0654,0.0816,0.0707,0.1393,0.1288,0.1259,0.1243,0.1377,0.135,0.1638,0.1679,0.1678,0.1677,0.1676,0,-0.1718,-0.1633,-0.1503,-0.131,-0.1266,-0.1186,-0.0962,-0.0864,-0.0619,-0.0523,-0.0341,-0.0248,0.0024,-0.0089,0.0404,0.0231,0.0368,0.0518,0.054,0.0441,0.0309,0.0707,0.1013,0.0833,0.0654,0.0646,0.0639,0,-0.1765,-0.1644,-0.1589,-0.1451,-0.1363,-0.1289,-0.1188,-0.1072,-0.0967,-0.0762,-0.0676,-0.051,-0.0654,-0.0563,-0.0363,-0.0131,0.0068,-0.0247,0.0322,0.0336,0.0229,0.0497,0.0497,0.0883,0.0536,0.0546,0.0554,0,-0.1797,-0.1662,-0.1649,-0.1558,-0.1468,-0.1411,-0.1334,-0.1196,-0.1065,-0.1017,-0.0801,-0.0794,-0.0737,-0.0703,-0.0703,-0.0475,-0.0121,-0.0464,-0.0449,-0.0258,0.0519,0.0364,0.0418,0.0007,0.002,0.0031,0.0472,0,-0.171,-0.1664,-0.1657,-0.1549,-0.1506,-0.146,-0.1377,-0.1326,-0.1284,-0.1199,-0.1068,-0.1035,-0.0917,-0.095,-0.0975,-0.0714,-0.0715,-0.0697,-0.0659,-0.0526,-0.0377,-0.0313,-0.1094,-0.1096,-0.1097,-0.1098,0,0,-0.1724,-0.1672,-0.1643,-0.159,-0.1536,-0.1493,-0.143,-0.1386,-0.1308,-0.1241,-0.1277,-0.1126,-0.1146,-0.0998,-0.1001,-0.1043,-0.0885,-0.1025,-0.0673,-0.0627,-0.0583,-0.0428,-0.0365,-0.11,-0.11,-0.11,-0.1101,0,-0.1671,-0.1675,-0.1649,-0.1599,-0.1532,-0.1476,-0.1472,-0.1392,-0.135,-0.1297,-0.1256,-0.1202,-0.1197,-0.1119,-0.1094,-0.1066,-0.0951,-0.1113,-0.1007,-0.0694,-0.0647,-0.0604,-0.0443,-0.0386,-0.1103,-0.1103,-0.1103,0,-0.1622,-0.1585,-0.158,-0.1533,-0.1489,-0.1429,-0.1404,-0.1378,-0.1318,-0.1303,-0.1237,-0.1224,-0.12,-0.1161,-0.1155,-0.1163,-0.0963,-0.1152,-0.1147,-0.1084,-0.0757,-0.0708,-0.0664,-0.1207,-0.1207,-0.1207,0,0,-0.1576,-0.1566,-0.1495,-0.1516,-0.1492,-0.142,-0.1399,-0.1355,-0.1309,-0.129,-0.1256,-0.1232,-0.1202,-0.1191,-0.1179,-0.1169,-0.1025,-0.1161,-0.1156,-0.1152,-0.1088,-0.0763,-0.0718,-0.1207,-0.1207,-0.1207,0,0,-0.1551,-0.1478,-0.145,-0.1474,-0.142,-0.1343,-0.1342,-0.1302,-0.1265,-0.1263,-0.1224,-0.1218,-0.1198,-0.1208,-0.1207,-0.1173,-0.1199,-0.1199,-0.1144,-0.1138,-0.1133,-0.105,-0.1193,0,0,0,0,0,-0.1448,-0.1486,-0.1462,-0.1457,-0.1404,-0.1358,-0.1346,-0.1287,-0.127,-0.1264,-0.1224,-0.1226,-0.1185,-0.1183,-0.1185,-0.1163,-0.1206,-0.1206,-0.1206,-0.1134,-0.1128,-0.1123,0,0,0,0,0,0,-0.1446,-0.1442,-0.146,-0.1392,-0.1379,-0.1358,-0.1308,-0.1292,-0.1269,-0.1261,-0.1228,-0.1225,-0.1196,-0.1183,-0.1185,-0.1163,-0.1192,-0.1206,-0.1206,-0.1206,-0.1132,-0.1127,-0.1123,0,0,0,0,0,-0.1444,-0.144,-0.1381,-0.1389,-0.1378,-0.1305,-0.1307,-0.1293,-0.1272,-0.1235,-0.1227,-0.1231,-0.1197,-0.1197,-0.1184,-0.1162,-0.1191,-0.1192,-0.1206,-0.1206,-0.1206,-0.113,0,0,0,0,0,0,-0.1442,-0.1415,-0.1376,-0.1368,-0.1383,-0.1303,-0.1292,-0.1295,-0.1247,-0.1238,-0.1236,-0.1231,-0.1198,-0.1197,-0.1198,-0.116,-0.119,-0.1191,-0.1191,-0.1206,-0.1206,-0.1206,0,0,0,0,0,0,-0.1417,-0.141,-0.1372,-0.1368,-0.1359,-0.1303,-0.1293,-0.1304,-0.125,-0.1252,-0.1245,-0.1235,-0.1222,-0.1198,-0.1198,-0.1214,-0.119,-0.119,-0.119,-0.1191,-0.1206,-0.1206,0,0,0,0,0,0,-0.1412,-0.1406,-0.1369,-0.1363,-0.1355,-0.1267,-0.1312,-0.1276,-0.1202,-0.1257,-0.1199,-0.1198,-0.1226,-0.1223,-0.1199,-0.1214,-0.1214,-0.119,-0.119,-0.119,-0.119,0,0,0,0,0,0,0,-0.1408,-0.1471,-0.1422,-0.1358,-0.1352,-0.1302,-0.1299,-0.1297,-0.1202,-0.1201,-0.12,-0.1199,-0.1187,-0.1187,-0.1188,-0.1215,0,0,-0.119,-0.119,0,0,0,0,0,0,0,0,-0.1471,-0.1471,-0.1422,-0.142,-0.1419,-0.1301,-0.1299,-0.1298,-0.1202,-0.1201,-0.12,-0.1199,-0.1187,-0.1187,-0.1188,0,0,0,0,0,0,0,0,0,0,0,0,0,0,0,-0.1421,-0.142,0,-0.1301,-0.1299,-0.1298,-0.1202,-0.1201,-0.12,-0.1199,-0.1187,-0.1187,-0.1188,0,0,0,0,0,0,0,0,0,0,0,0,0,0,0,0,0,0,0,0,0,0,0,0,0,0,0,0,0,0,0,0,0,0,0,0,0,0,0,0,0,0,0,0,0,0,0,0,0,0,0,0,0,0,0,0,0,0,0,0,0,0,0,0,0,0,0,0,0]}]],[[{"header":{"parameterUnit":"kt","parameterCategory":2,"dx":1,"dy":1,"la1":30.253999710083008,"la2":30.299108505249023,"lo1":-89.0895004272461,"lo2":-89.04439544677734,"nx":28,"ny":28,"refTime":"2022-09-20T09:00:00:Z","depth":"2","parameterNumber":2,"parameterNumberName":"U-component_of_CURRENTS"},"data":[0.3312,0.3294,0.3318,0.3218,0.3251,0.3109,0.304,0.2672,0.2421,0.1944,0.1642,0.1552,0.1713,0.1237,0.1212,0.1082,0.1555,0.1014,0.1922,0.2227,0.233,0.264,0.2235,0,0,0,0,0,0.3385,0.3443,0.3472,0.3478,0.3434,0.3539,0.3464,0.3262,0.3035,0.2838,0.2675,0.2179,0.194,0.2088,0.1722,0.1644,0.176,0.1693,0.1874,0.1984,0.2085,0.1758,0.0986,0.0985,0.0984,0.0983,0,0,0.3518,0.3535,0.3594,0.3642,0.3675,0.3644,0.3575,0.3529,0.3457,0.328,0.3437,0.3192,0.316,0.2725,0.2738,0.2687,0.2945,0.2866,0.2919,0.2984,0.2688,0.2469,0.2166,0.2172,0.2177,0.2182,0.2186,0,0.3579,0.3643,0.3678,0.3735,0.3766,0.3779,0.3805,0.3793,0.3835,0.3836,0.3833,0.3843,0.382,0.3565,0.3524,0.3529,0.383,0.3615,0.4571,0.3511,0.3317,0.3331,0.3368,0.3223,0.3235,0.3244,0.3251,0.3256,0.3659,0.368,0.3763,0.3784,0.3827,0.3875,0.3887,0.3952,0.3949,0.4043,0.404,0.4193,0.418,0.4338,0.4224,0.4313,0.4671,0.3917,0.3752,0.4433,0.4445,0.444,0.4433,0.3389,0.3372,0.3358,0.3347,0,0.3692,0.3746,0.3769,0.3829,0.3855,0.3879,0.3935,0.3943,0.4035,0.4074,0.4126,0.4242,0.4393,0.4562,0.4863,0.4748,0.4864,0.4819,0.4299,0.4234,0.4516,0.4493,0.4559,0.4545,0.4533,0.4523,0.4514,0,0.373,0.3754,0.3825,0.3838,0.3865,0.3889,0.3929,0.3961,0.4033,0.4049,0.4171,0.4211,0.445,0.459,0.4749,0.4748,0.5026,0.47,0.4715,0.4336,0.4262,0.5058,0.5037,0.5219,0.5217,0.5215,0.5213,0,0.3756,0.3796,0.3822,0.3832,0.3863,0.3884,0.3902,0.3944,0.3958,0.408,0.4137,0.4268,0.4361,0.456,0.4687,0.4689,0.4964,0.5001,0.4722,0.4695,0.4361,0.4289,0.5211,0.5211,0.521,0.5209,0.5209,0,0.3791,0.3812,0.3842,0.3858,0.3866,0.3883,0.3907,0.3918,0.3983,0.4031,0.4105,0.4172,0.4275,0.4292,0.4536,0.4466,0.4609,0.4704,0.4718,0.4307,0.4282,0.406,0.4006,0.4858,0.4855,0.4851,0.4848,0,0.3806,0.3832,0.3843,0.3861,0.3869,0.3888,0.3895,0.3912,0.395,0.4011,0.4053,0.413,0.4117,0.4181,0.426,0.4401,0.4501,0.4355,0.4681,0.469,0.4272,0.4295,0.3837,0.3987,0.4805,0.4809,0.4813,0,0.3802,0.3842,0.3854,0.3867,0.3891,0.3884,0.39,0.3908,0.3939,0.3988,0.4042,0.4072,0.4128,0.4143,0.4169,0.4254,0.4428,0.432,0.4328,0.4413,0.4747,0.4293,0.428,0.451,0.4514,0.4518,0.4778,0,0.384,0.3852,0.3858,0.3867,0.3874,0.3888,0.3892,0.392,0.3961,0.3974,0.4042,0.4077,0.4131,0.4141,0.4141,0.4237,0.428,0.4299,0.4283,0.4345,0.4448,0.4475,0.4156,0.4156,0.4156,0.4156,0,0,0.3849,0.3833,0.3835,0.3845,0.3855,0.3883,0.3891,0.3901,0.3937,0.3954,0.3989,0.4075,0.4093,0.4117,0.4129,0.4144,0.4242,0.413,0.4298,0.4313,0.4328,0.443,0.4456,0.4156,0.4156,0.4156,0.4156,0,0.3835,0.3831,0.3831,0.3839,0.3867,0.3861,0.3883,0.39,0.3924,0.3961,0.3995,0.4046,0.4087,0.4092,0.4101,0.4141,0.421,0.4169,0.4155,0.4293,0.4308,0.4323,0.4425,0.4448,0.4155,0.4156,0.4156,0,0.3838,0.3826,0.3819,0.3805,0.3821,0.3825,0.3844,0.3874,0.3882,0.3913,0.3963,0.4004,0.4025,0.4055,0.4081,0.4065,0.4184,0.4106,0.4108,0.41,0.4242,0.4259,0.4274,0.4084,0.4083,0.4083,0,0,0.3836,0.3823,0.3809,0.3799,0.381,0.3827,0.3843,0.3863,0.3886,0.3912,0.3942,0.3982,0.401,0.4028,0.4055,0.4074,0.4137,0.4095,0.4099,0.4101,0.4095,0.4237,0.4253,0.4081,0.4081,0.4081,0,0,0.383,0.3803,0.3815,0.3793,0.3802,0.379,0.3819,0.3842,0.3887,0.3919,0.3934,0.3944,0.4005,0.4008,0.3985,0.4044,0.4034,0.4038,0.4025,0.403,0.4033,0.4018,0.3974,0,0,0,0,0,0.3812,0.3797,0.3808,0.3805,0.3785,0.3776,0.3779,0.3815,0.3856,0.3874,0.3918,0.3922,0.4,0.3979,0.3983,0.4002,0.406,0.4064,0.4067,0.4058,0.4062,0.4066,0,0,0,0,0,0,0.381,0.3801,0.3809,0.3788,0.3786,0.3775,0.3795,0.3804,0.3855,0.3865,0.3911,0.392,0.3919,0.3977,0.3981,0.3998,0.3973,0.4061,0.4065,0.4067,0.4059,0.4063,0.4066,0,0,0,0,0,0.3809,0.3801,0.3757,0.3791,0.3788,0.3827,0.3797,0.3805,0.3858,0.3864,0.3876,0.3894,0.3916,0.3924,0.3979,0.3997,0.397,0.3972,0.4063,0.4066,0.4068,0.4061,0,0,0,0,0,0,0.3808,0.381,0.3758,0.376,0.3813,0.3831,0.3832,0.3806,0.3857,0.3868,0.3842,0.3848,0.3914,0.3921,0.3926,0.3996,0.3968,0.397,0.397,0.4065,0.4067,0.4069,0,0,0,0,0,0,0.3815,0.3811,0.3759,0.3785,0.379,0.3835,0.3835,0.3842,0.3859,0.3832,0.3838,0.3844,0.3921,0.3918,0.3923,0.393,0.3966,0.3968,0.3969,0.3969,0.4067,0.4069,0,0,0,0,0,0,0.3815,0.3812,0.3784,0.3788,0.3793,0.3818,0.3844,0.3832,0.3854,0.383,0.386,0.3863,0.3918,0.3923,0.3919,0.3924,0.3929,0.3967,0.3967,0.3968,0.3969,0,0,0,0,0,0,0,0.3815,0.382,0.3748,0.3791,0.3796,0.3781,0.3781,0.3781,0.3855,0.3857,0.386,0.3862,0.3959,0.396,0.3962,0.392,0,0,0.3966,0.3967,0,0,0,0,0,0,0,0,0.3824,0.3821,0.3748,0.3749,0.3749,0.3781,0.3781,0.3781,0.3855,0.3857,0.3859,0.3861,0.3959,0.396,0.3961,0,0,0,0,0,0,0,0,0,0,0,0,0,0,0,0.3748,0.3749,0,0.3781,0.3781,0.3781,0.3855,0.3857,0.3859,0.386,0.3959,0.396,0.3961,0,0,0,0,0,0,0,0,0,0,0,0,0,0,0,0,0,0,0,0,0,0,0,0,0,0,0,0,0,0,0,0,0,0,0,0,0,0,0,0,0,0,0,0,0,0,0,0,0,0,0,0,0,0,0,0,0,0,0,0,0,0,0,0,0,0,0,0,0]}],[{"header":{"parameterUnit":"kt","parameterCategory":2,"dx":1,"dy":1,"la1":30.253999710083008,"la2":30.299108505249023,"lo1":-89.0895004272461,"lo2":-89.04439544677734,"nx":28,"ny":28,"refTime":"2022-09-20T09:00:00:Z","depth":"2","parameterNumber":3,"parameterNumberName":"V-component_of_CURRENTS"},"data":[-0.0675,-0.0655,-0.0633,-0.0503,-0.0466,-0.0302,-0.0177,0.0212,0.0505,0.0937,0.1134,0.1445,0.1117,0.0876,0.0607,0.037,0.0246,0.0331,0.0527,0.0197,0.0186,-0.0066,-0.0,0,0,0,0,0,-0.069,-0.0702,-0.0674,-0.0619,-0.0528,-0.0516,-0.0323,-0.0109,0.025,0.0582,0.0917,0.0918,0.1008,0.0825,0.0476,0.0385,0.0204,0.0335,0.0048,0.0032,0.0017,0.007,0.0174,0.0174,0.0174,0.0174,0,0,-0.071,-0.0717,-0.0712,-0.0685,-0.0636,-0.0514,-0.0409,-0.0202,0.0032,0.0387,0.0435,0.0749,0.0628,0.0776,0.0631,0.0387,0.038,0.0235,0.0216,0.0198,0.0271,0.0331,0.0423,0.0425,0.0426,0.0427,0.0428,0,-0.0687,-0.0721,-0.0707,-0.0688,-0.0663,-0.057,-0.0482,-0.0399,-0.0234,-0.0061,0.0167,0.0348,0.0443,0.0476,0.0507,0.0418,0.0116,0.0152,0.0132,-0.0182,-0.0142,-0.012,-0.0121,-0.0148,-0.015,-0.0151,-0.0152,-0.0152,-0.0667,-0.0681,-0.0668,-0.0652,-0.0645,-0.0611,-0.0554,-0.0447,-0.0352,-0.0158,-0.0084,0.0043,0.0238,0.0319,0.0233,0.0208,0.0121,0.0096,0.0034,0.0054,0.008,0.0078,0.0077,-0.0171,-0.0169,-0.0167,-0.0165,0,-0.0649,-0.063,-0.0621,-0.0579,-0.0566,-0.0568,-0.0454,-0.0399,-0.0325,-0.0205,-0.0183,-0.0073,0.0003,-0.0006,-0.0069,-0.008,-0.0086,-0.007,-0.0172,-0.0146,0.0032,0.004,0.0059,0.0068,0.0075,0.008,0.0085,0,-0.058,-0.0584,-0.055,-0.0545,-0.0533,-0.0466,-0.0436,-0.0387,-0.0296,-0.0207,-0.0187,-0.0111,-0.0164,-0.014,-0.0213,-0.0152,-0.0269,-0.016,-0.0129,-0.0252,-0.0239,-0.0339,-0.0329,-0.0414,-0.0414,-0.0414,-0.0413,0,-0.0547,-0.0498,-0.0503,-0.0478,-0.0388,-0.0398,-0.0353,-0.029,-0.0228,-0.019,-0.0144,-0.0167,-0.0139,-0.0226,-0.0215,-0.0248,-0.0261,-0.0295,-0.0153,-0.0136,-0.0249,-0.0235,-0.0413,-0.0413,-0.0413,-0.0413,-0.0412,0,-0.0474,-0.0446,-0.0445,-0.0363,-0.0346,-0.0338,-0.0278,-0.0238,-0.0177,-0.0158,-0.0163,-0.0132,-0.014,-0.0166,-0.022,-0.0196,-0.0255,-0.026,-0.0262,-0.0038,0.0026,-0.0115,-0.0158,-0.0248,-0.0247,-0.0246,-0.0245,0,-0.0438,-0.0415,-0.0357,-0.0341,-0.0307,-0.0236,-0.021,-0.0164,-0.0135,-0.0109,-0.01,-0.0086,-0.0109,-0.0107,-0.0152,-0.012,-0.0187,-0.0144,-0.0197,-0.0199,0.0029,0.0015,-0.0109,-0.0144,-0.0229,-0.0231,-0.0232,0,-0.0391,-0.0307,-0.0318,-0.0293,-0.0214,-0.0166,-0.0162,-0.0091,-0.0087,-0.0093,-0.008,-0.0092,-0.0093,-0.0087,-0.0061,-0.0095,-0.0156,-0.0103,-0.0103,-0.0113,-0.0236,0.0006,0.0019,-0.0164,-0.0166,-0.0168,-0.022,0,-0.0286,-0.027,-0.0273,-0.0208,-0.0168,-0.0144,-0.0054,-0.0055,-0.0059,-0.0013,-0.0036,-0.0013,-0.0015,-0.0021,0.0006,-0.0041,-0.0042,-0.0027,-0.0016,-0.0062,-0.0076,-0.0086,0.0036,0.0037,0.0037,0.0037,0,0,-0.0257,-0.0206,-0.0135,-0.0112,-0.0078,-0.0004,0.0015,0.0051,0.0099,0.01,0.0077,0.007,0.0067,0.0078,0.0064,0.0067,0.0043,0.0032,-0.0035,-0.0043,-0.0051,-0.0067,-0.0077,0.0038,0.0038,0.0038,0.0039,0,-0.0177,-0.0139,-0.0142,-0.0082,-0.0019,0.0052,0.0041,0.0124,0.0124,0.0121,0.0138,0.0115,0.0093,0.0117,0.0124,0.0079,0.0055,0.005,0.0002,-0.003,-0.0038,-0.0046,-0.0063,-0.0073,0.004,0.004,0.004,0,-0.0106,-0.0043,-0.0037,0.0068,0.011,0.0155,0.0201,0.0213,0.0228,0.025,0.0203,0.0206,0.0215,0.0191,0.0161,0.0166,0.0073,0.0103,0.01,0.0082,0.0049,0.0039,0.003,0.0144,0.0144,0.0144,0,0,-0.0058,-0.0042,0.009,0.0098,0.0126,0.0201,0.0218,0.0245,0.0276,0.0264,0.0253,0.0227,0.0228,0.0199,0.0195,0.0158,0.0146,0.0116,0.0111,0.0107,0.0087,0.0053,0.0044,0.0146,0.0146,0.0146,0,0,-0.0027,0.0094,0.0115,0.0144,0.0217,0.0335,0.0308,0.0333,0.0321,0.0272,0.0292,0.0285,0.0231,0.0223,0.0246,0.0176,0.0195,0.019,0.0183,0.0177,0.0172,0.0154,0.0252,0,0,0,0,0,0.0097,0.0091,0.0109,0.0128,0.0244,0.0337,0.0349,0.0371,0.0334,0.0327,0.0311,0.0293,0.0246,0.0268,0.0262,0.0215,0.0166,0.0162,0.0159,0.0141,0.0134,0.0129,0,0,0,0,0,0,0.0105,0.0131,0.011,0.0231,0.0257,0.0338,0.0347,0.0354,0.0335,0.033,0.0304,0.0296,0.0314,0.0269,0.0264,0.0219,0.0254,0.0164,0.0161,0.0159,0.0139,0.0133,0.0129,0,0,0,0,0,0.0112,0.0133,0.0308,0.023,0.0253,0.0299,0.0344,0.035,0.0316,0.0346,0.0338,0.0321,0.0317,0.0308,0.0266,0.0221,0.0257,0.0255,0.0162,0.016,0.0158,0.0136,0,0,0,0,0,0,0.0117,0.0137,0.0313,0.0321,0.0203,0.0292,0.0306,0.0346,0.0329,0.0326,0.0368,0.0365,0.032,0.0312,0.0305,0.0221,0.026,0.0258,0.0257,0.0161,0.0159,0.0157,0,0,0,0,0,0,0.0126,0.0143,0.0317,0.0281,0.0285,0.0285,0.0298,0.0288,0.0324,0.0349,0.0349,0.0366,0.0285,0.0315,0.031,0.0298,0.0262,0.026,0.0259,0.0258,0.0159,0.0158,0,0,0,0,0,0,0.0134,0.0149,0.0279,0.0282,0.0285,0.0372,0.027,0.0356,0.0386,0.0346,0.038,0.0376,0.0286,0.0283,0.0313,0.0304,0.0299,0.0262,0.026,0.026,0.0259,0,0,0,0,0,0,0,0.014,0.0035,0.0269,0.0283,0.0285,0.0393,0.0395,0.0397,0.0386,0.0383,0.038,0.0378,0.0271,0.0269,0.0268,0.0309,0,0,0.0262,0.0261,0,0,0,0,0,0,0,0,0.0029,0.0033,0.0269,0.0271,0.0273,0.0393,0.0395,0.0396,0.0385,0.0383,0.0381,0.0379,0.0271,0.0269,0.0268,0,0,0,0,0,0,0,0,0,0,0,0,0,0,0,0.0269,0.0271,0,0.0394,0.0395,0.0396,0.0385,0.0383,0.0381,0.038,0.027,0.0269,0.0268,0,0,0,0,0,0,0,0,0,0,0,0,0,0,0,0,0,0,0,0,0,0,0,0,0,0,0,0,0,0,0,0,0,0,0,0,0,0,0,0,0,0,0,0,0,0,0,0,0,0,0,0,0,0,0,0,0,0,0,0,0,0,0,0,0,0,0,0,0]}]],[[{"header":{"parameterUnit":"kt","parameterCategory":2,"dx":1,"dy":1,"la1":30.253999710083008,"la2":30.299108505249023,"lo1":-89.0895004272461,"lo2":-89.04439544677734,"nx":28,"ny":28,"refTime":"2022-09-20T09:00:00:Z","depth":"4","parameterNumber":2,"parameterNumberName":"U-component_of_CURRENTS"},"data":[-0.0808,-0.0858,-0.0873,-0.0867,-0.0834,-0.0761,-0.064,-0.0498,-0.0411,-0.0223,-0.0265,-0.0133,-0.0245,-0.0146,-0.0318,-0.0342,-0.0335,-0.0492,-0.0493,-0.0469,-0.0466,-0.0463,-0.0147,0,0,0,0,0,-0.0797,-0.0819,-0.0861,-0.0844,-0.0826,-0.0761,-0.0591,-0.0423,-0.0199,-0.0162,-0.0031,-0.0119,-0.0186,-0.0296,-0.0315,-0.0453,-0.0465,-0.0489,-0.047,-0.0467,-0.0464,-0.0157,0,0,0,0,0,0,-0.0797,-0.0821,-0.0877,-0.0839,-0.0798,-0.0699,-0.0536,-0.0357,-0.0185,0.0038,-0.0062,-0.0059,-0.0016,-0.0128,-0.0411,-0.0457,-0.0371,-0.0356,-0.0358,-0.0356,-0.0101,-0.0033,-0.0323,0,0,0,0,0,-0.0779,-0.0807,-0.0824,-0.083,-0.0736,-0.0602,-0.0374,-0.0286,-0.0001,0.0132,0.0139,0.016,0.0019,-0.0035,-0.0239,-0.0466,-0.0387,-0.0572,-0.0565,-0.023,-0.0198,-0.0308,-0.0291,-0.045,-0.0449,-0.0449,-0.0449,0,-0.0762,-0.0776,-0.0784,-0.0779,-0.0743,-0.0518,-0.037,-0.0086,0.0053,0.0206,0.0206,0.0248,0.0337,-0.0031,-0.0102,-0.0363,-0.0398,-0.0565,-0.0207,-0.0188,-0.0306,-0.0288,-0.0272,-0.0446,-0.0446,-0.0447,-0.0447,0,-0.0764,-0.0796,-0.0805,-0.073,-0.0672,-0.0542,-0.027,-0.0103,0.0148,0.0313,0.0426,0.0564,0.0492,0.0423,0.0152,0.0102,-0.0166,-0.0317,-0.0255,-0.039,-0.0275,-0.026,-0.0441,-0.0442,-0.0443,-0.0444,-0.0445,0,-0.0797,-0.0793,-0.0791,-0.0797,-0.0672,-0.0548,-0.0299,-0.0127,0.0126,0.027,0.0567,0.0616,0.0756,0.0602,0.0463,0.0222,0.0157,0.0114,-0.0022,0.0114,0.0124,-0.0051,-0.0058,0.0047,0.0051,0.0054,0.0057,0,-0.0837,-0.0843,-0.0826,-0.0823,-0.0754,-0.0612,-0.0472,-0.0191,-0.0028,0.0315,0.043,0.0669,0.0759,0.0667,0.0526,0.0622,0.0226,0.0248,0.005,0.004,-0.0034,-0.0047,0.0061,0.0062,0.0063,0.0064,0.0065,0,-0.089,-0.0911,-0.0893,-0.0826,-0.0804,-0.0729,-0.0466,-0.031,-0.0021,0.0162,0.0441,0.0568,0.0758,0.0757,0.0668,0.0775,0.0592,0.044,0.0415,0.0331,0.0134,-0.0181,0.0014,0.0017,0.0019,0.0021,0.0023,0,-0.0931,-0.0943,-0.0945,-0.0906,-0.0899,-0.0825,-0.0652,-0.0485,-0.0278,-0.0065,0.0145,0.0377,0.0498,0.0653,0.0691,0.0574,0.0517,0.0654,0.0132,0.0114,0.0104,0.0292,0.051,0.0055,0.0051,0.0048,0.0046,0,-0.0953,-0.101,-0.101,-0.1011,-0.0992,-0.0963,-0.0786,-0.0624,-0.0486,-0.0259,-0.0041,0.0281,0.0377,0.0454,0.052,0.0514,0.0532,0.0444,0.0431,0.022,0.0271,0.0314,0.0296,0.0508,0.0508,0.0509,0.0068,0,-0.0985,-0.1024,-0.102,-0.1037,-0.1012,-0.1007,-0.0925,-0.0818,-0.069,-0.058,-0.0295,-0.0191,0.0006,0.0099,0.015,0.0327,0.0205,0.0132,-0.0034,0.0169,-0.0058,-0.0073,0.0016,0.0009,0.0004,-0.0,0,0,-0.1003,-0.1039,-0.1078,-0.1081,-0.1067,-0.1103,-0.108,-0.1007,-0.0938,-0.082,-0.0793,-0.0477,-0.0445,-0.0224,-0.0048,-0.0073,-0.018,-0.002,0.0098,0.0111,0.0122,-0.0083,-0.0091,-0.001,-0.0012,-0.0014,-0.0015,0,-0.1004,-0.1061,-0.1081,-0.1093,-0.1115,-0.1106,-0.1119,-0.1091,-0.1024,-0.0878,-0.087,-0.0737,-0.0561,-0.0479,-0.0414,-0.0159,-0.0318,-0.0068,0.0155,0.0056,0.0076,0.0092,-0.0103,-0.0107,-0.0028,-0.0028,-0.0027,0,-0.1023,-0.1052,-0.108,-0.112,-0.1129,-0.1118,-0.1162,-0.1168,-0.1099,-0.1163,-0.1024,-0.0956,-0.0902,-0.0702,-0.064,-0.0713,-0.0504,-0.0481,-0.0453,-0.0459,-0.0574,-0.0547,-0.0524,-0.0841,-0.0843,-0.0845,0,0,-0.1022,-0.106,-0.1097,-0.1123,-0.1133,-0.1151,-0.1158,-0.1176,-0.1163,-0.1165,-0.1122,-0.1062,-0.0958,-0.0917,-0.0857,-0.0716,-0.0876,-0.0572,-0.0534,-0.0501,-0.0489,-0.0593,-0.0566,-0.0852,-0.0852,-0.0852,0,0,-0.1011,-0.1069,-0.1105,-0.1141,-0.1156,-0.1153,-0.1155,-0.1182,-0.1168,-0.1171,-0.1176,-0.1174,-0.104,-0.1072,-0.1168,-0.0832,-0.1,-0.0982,-0.0774,-0.0728,-0.069,-0.0682,-0.1218,0,0,0,0,0,-0.1042,-0.1061,-0.1093,-0.1104,-0.1144,-0.1141,-0.1141,-0.1169,-0.1198,-0.1205,-0.1179,-0.1222,-0.1079,-0.1166,-0.1163,-0.0963,-0.0946,-0.0929,-0.0914,-0.0615,-0.0566,-0.0524,0,0,0,0,0,0,-0.1047,-0.1061,-0.1091,-0.1095,-0.1103,-0.114,-0.1163,-0.1169,-0.1198,-0.1206,-0.1217,-0.122,-0.1214,-0.1171,-0.1167,-0.0973,-0.1219,-0.0939,-0.0925,-0.0913,-0.0598,-0.0558,-0.0523,0,0,0,0,0,-0.105,-0.1061,-0.1135,-0.1092,-0.11,-0.1134,-0.1165,-0.1171,-0.1198,-0.1193,-0.1199,-0.1228,-0.1212,-0.1212,-0.1169,-0.0971,-0.1222,-0.1221,-0.093,-0.0919,-0.0909,-0.0578,0,0,0,0,0,0,-0.1052,-0.1045,-0.1136,-0.1137,-0.1117,-0.1133,-0.1142,-0.1172,-0.1184,-0.119,-0.12,-0.1205,-0.121,-0.121,-0.1209,-0.0962,-0.1224,-0.1223,-0.1222,-0.0922,-0.0913,-0.0905,0,0,0,0,0,0,-0.1039,-0.1046,-0.1136,-0.1166,-0.1171,-0.1132,-0.1141,-0.1117,-0.1184,-0.119,-0.1195,-0.1202,-0.122,-0.1208,-0.1208,-0.1168,-0.1226,-0.1225,-0.1224,-0.1223,-0.0915,-0.0908,0,0,0,0,0,0,-0.1041,-0.1047,-0.1166,-0.1169,-0.1173,-0.1181,-0.111,-0.1154,-0.1203,-0.1188,-0.121,-0.1213,-0.1218,-0.1218,-0.1207,-0.1167,-0.1168,-0.1226,-0.1225,-0.1224,-0.1224,0,0,0,0,0,0,0,-0.1043,-0.1013,-0.1137,-0.1171,-0.1175,-0.1146,-0.1146,-0.1145,-0.1204,-0.1207,-0.1209,-0.1212,-0.1234,-0.1233,-0.1231,-0.1166,0,0,-0.1226,-0.1225,0,0,0,0,0,0,0,0,-0.101,-0.1013,-0.1137,-0.1137,-0.1138,-0.1146,-0.1146,-0.1145,-0.1204,-0.1207,-0.1209,-0.1211,-0.1234,-0.1233,-0.1231,0,0,0,0,0,0,0,0,0,0,0,0,0,0,0,-0.1137,-0.1137,0,-0.1146,-0.1146,-0.1145,-0.1205,-0.1206,-0.1208,-0.121,-0.1234,-0.1233,-0.1231,0,0,0,0,0,0,0,0,0,0,0,0,0,0,0,0,0,0,0,0,0,0,0,0,0,0,0,0,0,0,0,0,0,0,0,0,0,0,0,0,0,0,0,0,0,0,0,0,0,0,0,0,0,0,0,0,0,0,0,0,0,0,0,0,0,0,0,0,0]}],[{"header":{"parameterUnit":"kt","parameterCategory":2,"dx":1,"dy":1,"la1":30.253999710083008,"la2":30.299108505249023,"lo1":-89.0895004272461,"lo2":-89.04439544677734,"nx":28,"ny":28,"refTime":"2022-09-20T09:00:00:Z","depth":"4","parameterNumber":3,"parameterNumberName":"V-component_of_CURRENTS"},"data":[0.0887,0.1049,0.1111,0.1318,0.146,0.1657,0.169,0.1567,0.1345,0.1241,0.1024,0.1088,0.0739,0.0751,0.0402,0.0383,0.0525,0.024,0.024,0.0492,0.0506,0.0519,0.0554,0,0,0,0,0,0.0923,0.0998,0.1231,0.1506,0.179,0.2003,0.2102,0.2069,0.1931,0.1523,0.1483,0.1081,0.0732,0.0509,0.0426,0.0423,0.0449,0.0335,0.0557,0.0501,0.0517,0.0545,0,0,0,0,0,0,0.0975,0.1056,0.1289,0.1663,0.2014,0.2087,0.2199,0.2076,0.1968,0.1656,0.1398,0.1041,0.0901,0.0657,0.0482,0.0434,0.0421,0.0499,0.0514,0.0528,0.0547,0.0768,0.0341,0,0,0,0,0,0.1037,0.12,0.1342,0.1749,0.211,0.2282,0.2541,0.2402,0.2287,0.231,0.1731,0.1477,0.1044,0.0765,0.0698,0.0522,0.0729,0.0618,0.0626,0.0682,0.0862,0.0794,0.0823,0.0577,0.0579,0.058,0.0581,0,0.1087,0.119,0.1579,0.1796,0.2092,0.2432,0.2606,0.2737,0.2639,0.231,0.2105,0.1781,0.158,0.0994,0.0864,0.0685,0.0647,0.0659,0.0718,0.0892,0.0812,0.0839,0.0864,0.0593,0.0592,0.0591,0.059,0,0.1126,0.1279,0.1495,0.1865,0.2073,0.2305,0.2655,0.2668,0.269,0.249,0.2451,0.2161,0.1787,0.1662,0.1236,0.1182,0.0883,0.0792,0.115,0.1059,0.0875,0.0896,0.0614,0.061,0.0606,0.0602,0.06,0,0.1179,0.1337,0.1613,0.172,0.2062,0.2236,0.2519,0.266,0.264,0.2514,0.2522,0.2264,0.2085,0.1819,0.1663,0.1304,0.1254,0.1098,0.0986,0.1195,0.1214,0.106,0.1067,0.1012,0.1012,0.1013,0.1014,0,0.113,0.1355,0.1556,0.1641,0.1914,0.2187,0.2401,0.2539,0.2554,0.2549,0.2483,0.2342,0.2175,0.196,0.1709,0.1734,0.1283,0.1232,0.1068,0.1067,0.1067,0.1073,0.1015,0.1015,0.1015,0.1016,0.1016,0,0.1165,0.1228,0.1438,0.1697,0.1767,0.2022,0.23,0.2418,0.2457,0.2507,0.2471,0.2378,0.2217,0.2182,0.1832,0.1898,0.1745,0.1562,0.1547,0.1361,0.1254,0.1426,0.1417,0.142,0.1423,0.1426,0.1428,0,0.113,0.1216,0.1318,0.1564,0.1651,0.1839,0.2009,0.2169,0.2309,0.2379,0.2293,0.2289,0.2301,0.2247,0.2112,0.1816,0.1742,0.1862,0.1388,0.1378,0.1348,0.13,0.1583,0.147,0.1465,0.1461,0.1458,0,0.1045,0.1152,0.1179,0.1293,0.1489,0.1555,0.1791,0.1953,0.2046,0.225,0.2294,0.2304,0.2256,0.2178,0.2046,0.1894,0.1809,0.1779,0.1761,0.1795,0.1441,0.1366,0.1335,0.1609,0.1604,0.1599,0.1488,0,0.1015,0.1109,0.1132,0.125,0.1334,0.1452,0.157,0.1743,0.1942,0.2003,0.2095,0.2068,0.2037,0.2013,0.1954,0.1826,0.1797,0.1648,0.1581,0.1581,0.1539,0.1518,0.1709,0.1704,0.1701,0.1698,0,0,0.0982,0.1031,0.1016,0.1052,0.1149,0.1224,0.1344,0.1418,0.1614,0.1691,0.1794,0.182,0.1823,0.172,0.1772,0.1739,0.1637,0.1773,0.1591,0.1581,0.157,0.153,0.1513,0.1692,0.169,0.1689,0.1688,0,0.0923,0.0969,0.1005,0.1028,0.1107,0.1159,0.1206,0.1315,0.1431,0.1633,0.1616,0.1654,0.1759,0.1688,0.1634,0.1698,0.1592,0.1679,0.1789,0.1568,0.1563,0.1557,0.1518,0.1506,0.1679,0.168,0.168,0,0.0891,0.0898,0.0929,0.0946,0.0979,0.1053,0.1024,0.1116,0.1244,0.1226,0.152,0.1505,0.1419,0.151,0.1555,0.1515,0.1516,0.1567,0.158,0.1589,0.1355,0.135,0.1345,0.1407,0.1408,0.1408,0,0,0.0858,0.0888,0.0895,0.0936,0.0954,0.0988,0.1016,0.109,0.1157,0.1217,0.1351,0.1411,0.1395,0.1454,0.148,0.1539,0.1424,0.1548,0.156,0.1572,0.1588,0.1359,0.1354,0.141,0.141,0.141,0,0,0.0836,0.0851,0.0899,0.093,0.0954,0.094,0.0993,0.1033,0.1142,0.1238,0.127,0.1302,0.1439,0.1395,0.1419,0.1468,0.1391,0.1389,0.1572,0.1587,0.1599,0.1628,0.1407,0,0,0,0,0,0.0812,0.0832,0.0875,0.0885,0.0917,0.0906,0.0912,0.0994,0.1068,0.1103,0.1226,0.1234,0.1401,0.1425,0.1436,0.1496,0.1433,0.1429,0.1425,0.167,0.1686,0.1699,0,0,0,0,0,0,0.0816,0.0822,0.0874,0.0856,0.0865,0.0904,0.0959,0.0978,0.1068,0.109,0.1207,0.1232,0.126,0.1419,0.1429,0.1487,0.1403,0.1431,0.1428,0.1424,0.1675,0.1688,0.1699,0,0,0,0,0,0.0818,0.0824,0.0872,0.0856,0.0864,0.0957,0.0964,0.0981,0.1074,0.1125,0.1155,0.1154,0.1253,0.1275,0.1425,0.1482,0.1396,0.14,0.1429,0.1426,0.1424,0.1682,0,0,0,0,0,0,0.082,0.082,0.0874,0.0879,0.0913,0.0961,0.0975,0.0983,0.1109,0.1134,0.1066,0.1079,0.1247,0.1265,0.1281,0.1482,0.139,0.1394,0.1396,0.1427,0.1425,0.1423,0,0,0,0,0,0,0.0818,0.0823,0.0876,0.0943,0.0956,0.0964,0.0977,0.0999,0.1113,0.1043,0.1058,0.1071,0.1271,0.1258,0.1271,0.1296,0.1385,0.1389,0.1392,0.1393,0.1425,0.1423,0,0,0,0,0,0,0.0821,0.0825,0.0942,0.0951,0.0963,0.101,0.0989,0.1048,0.1089,0.1038,0.1106,0.1113,0.1264,0.1277,0.1263,0.1281,0.1292,0.1385,0.1388,0.139,0.1391,0,0,0,0,0,0,0,0.0823,0.0786,0.0858,0.0958,0.0968,0.0918,0.0919,0.0919,0.1091,0.1098,0.1104,0.111,0.1363,0.1367,0.1372,0.1268,0,0,0.1385,0.1387,0,0,0,0,0,0,0,0,0.0785,0.0786,0.0858,0.0859,0.0861,0.0918,0.0919,0.0919,0.1092,0.1097,0.1103,0.1108,0.1364,0.1368,0.1371,0,0,0,0,0,0,0,0,0,0,0,0,0,0,0,0.0858,0.0859,0,0.0918,0.0919,0.0919,0.1093,0.1097,0.1102,0.1106,0.1365,0.1368,0.1371,0,0,0,0,0,0,0,0,0,0,0,0,0,0,0,0,0,0,0,0,0,0,0,0,0,0,0,0,0,0,0,0,0,0,0,0,0,0,0,0,0,0,0,0,0,0,0,0,0,0,0,0,0,0,0,0,0,0,0,0,0,0,0,0,0,0,0,0,0]}]]]